sat.trackr.live / text

‹ back to catalog

STARLINK-3182

NORAD 51469 · 2022-010P

PAYLOAD ACTIVE UNKNOWN

§ Identity

Operator
Country
US
Launch date
2022-02-03
Launch site
AFETR
Launch vehicle
Mass (kg)
RCS (m²)

Purposes: comms

External: N2YO · Heavens-Above · Gunter

§ Orbital elements

Epoch: 2026-05-24T19:20:49.896384Z

Period
95.44 min
Inclination
53.2140°
Eccentricity
0.0001390
Mean motion
15.08825663 rev/d
Perigee alt
538.8 km
Apogee alt
540.7 km
Semi-major
6,917.9 km
B*
1.9521e-4
RAAN
297.4207°
Arg perigee
88.8767°
Mean anomaly
271.2385°
Rev number
23,831

§ Raw data

STARLINK-31821 51469U 22010P   26144.80613306  .00002819  00000+0  19521-3 0  99942 51469  53.2140 297.4207 0001390  88.8767 271.2385 15.08825663238319

JSON: /api/v1/satellites/51469 · /tle

For live sub-satellite position, see the globe view (requires WebGL).

§ Visibility from observer

Set your observer location to see the next 7 days of passes ≥ 10°. The values pass through the URL so the page stays shareable.

No JS? Fill the form by hand. The geolocation button needs JavaScript.